2023/01/28 00:00:00,41.3,-6.7
2023/01/28 00:10:00,41.3,-7.3
2023/01/28 00:20:00,41.3,-7.2
2023/01/28 00:30:00,41.3,-7.2
2023/01/28 00:40:00,41.2,-7.4
2023/01/28 00:50:00,41.1,-7.1
2023/01/28 01:00:00,41.0,-7.5
2023/01/28 01:10:00,40.8,-7.7
2023/01/28 01:20:00,40.7,-8.5
2023/01/28 01:30:00,40.6,-8.2
2023/01/28 01:40:00,40.5,-8.2
2023/01/28 01:50:00,40.6,-8.2
2023/01/28 02:00:00,40.5,-8.3
2023/01/28 02:10:00,40.3,-8.5
2023/01/28 02:20:00,40.1,-8.7
2023/01/28 02:30:00,40.1,-9.0
2023/01/28 02:40:00,40.1,-8.8
2023/01/28 02:50:00,40.1,-9.0
2023/01/28 03:00:00,39.9,-9.1
2023/01/28 03:10:00,39.8,-9.2
2023/01/28 03:20:00,39.9,-9.0
2023/01/28 03:30:00,39.9,-9.2
2023/01/28 03:40:00,39.9,-9.2
2023/01/28 03:50:00,39.8,-8.9
2023/01/28 04:00:00,39.6,-9.3
2023/01/28 04:10:00,39.5,-9.1
2023/01/28 04:20:00,39.4,-8.6
2023/01/28 04:30:00,39.3,-8.3
2023/01/28 04:40:00,39.5,-8.1
2023/01/28 04:50:00,39.3,-8.0
2023/01/28 05:00:00,39.2,-7.4
2023/01/28 05:10:00,39.2,-7.2
2023/01/28 05:20:00,39.2,-6.7
2023/01/28 05:30:00,39.1,-6.9
2023/01/28 05:40:00,39.2,-6.4
2023/01/28 05:50:00,39.4,-6.6
2023/01/28 06:00:00,39.4,-6.0
2023/01/28 06:10:00,39.8,-6.0
2023/01/28 06:20:00,39.9,-5.9
2023/01/28 06:30:00,40.1,-6.0
2023/01/28 06:40:00,40.3,-5.7
2023/01/28 06:50:00,41.1,-5.6
2023/01/28 07:00:00,41.1,-5.5
2023/01/28 07:10:00,41.1,-5.6
2023/01/28 07:20:00,40.9,-5.5
2023/01/28 07:30:00,40.9,-5.1
2023/01/28 07:40:00,41.1,-5.2
2023/01/28 07:50:00,41.1,-4.9
2023/01/28 08:00:00,41.2,-4.9
2023/01/28 08:10:00,41.2,-4.6
2023/01/28 08:20:00,41.3,-4.3
2023/01/28 08:30:00,42.0,-4.3
2023/01/28 08:40:00,42.2,-3.6
2023/01/28 08:50:00,42.1,-1.7
2023/01/28 09:00:00,42.2,-2.6
2023/01/28 09:10:00,42.6,-2.4
2023/01/28 09:20:00,42.9,-2.9
2023/01/28 09:30:00,42.9,-1.5
2023/01/28 09:40:00,42.7, 0.5
2023/01/28 09:50:00,42.8, 0.3
2023/01/28 10:00:00,42.8, 1.4
2023/01/28 10:10:00,42.7, 2.3
2023/01/28 10:20:00,42.6, 2.4
2023/01/28 10:30:00,42.3, 3.1
2023/01/28 10:40:00,42.2, 0.9
2023/01/28 10:50:00,42.1, 1.7
2023/01/28 11:00:00,42.1, 1.2
2023/01/28 11:10:00,42.1, 0.6
2023/01/28 11:20:00,42.5, 0.3
2023/01/28 11:30:00,43.1,-0.1
2023/01/28 11:40:00,44.7,-0.2
2023/01/28 11:50:00,45.9, 1.1
2023/01/28 12:00:00,46.5, 2.5
2023/01/28 12:10:00,46.6, 1.5
2023/01/28 12:20:00,46.6, 1.2
2023/01/28 12:30:00,46.8, 1.3
2023/01/28 12:40:00,46.4, 2.4
2023/01/28 12:50:00,45.8, 4.6
2023/01/28 13:00:00,44.5, 6.0
2023/01/28 13:10:00,43.4, 6.5
2023/01/28 13:20:00,43.0, 7.8
2023/01/28 13:30:00,41.5, 7.2
2023/01/28 13:40:00,40.4, 4.5
2023/01/28 13:50:00,40.1, 1.6
2023/01/28 14:00:00,40.1, 0.2
2023/01/28 14:10:00,39.8, 1.6
2023/01/28 14:20:00,39.7, 1.1
2023/01/28 14:30:00,39.3, 2.5
2023/01/28 14:40:00,38.6, 3.3
2023/01/28 14:50:00,38.7, 5.0
2023/01/28 15:00:00,38.6, 3.4
2023/01/28 15:10:00,38.3, 1.7
2023/01/28 15:20:00,38.6, 0.1
2023/01/28 15:30:00,38.2, 0.2
2023/01/28 15:40:00,38.0,-0.7
2023/01/28 15:50:00,37.6,-1.1
2023/01/28 16:00:00,38.6,-1.7
2023/01/28 16:10:00,40.9,-1.7
2023/01/28 16:20:00,41.4,-1.7
2023/01/28 16:30:00,41.7,-2.1
2023/01/28 16:40:00,42.5,-2.2
2023/01/28 16:50:00,42.8,-1.5
2023/01/28 17:00:00,42.8,-2.0
2023/01/28 17:10:00,42.8,-2.3
2023/01/28 17:20:00,43.0,-2.5
2023/01/28 17:30:00,43.4,-2.8
2023/01/28 17:40:00,43.8,-3.0
2023/01/28 17:50:00,43.9,-3.1
2023/01/28 18:00:00,44.0,-3.0
2023/01/28 18:10:00,44.7,-3.4
2023/01/28 18:20:00,44.8,-3.5
2023/01/28 18:30:00,44.2,-4.0
2023/01/28 18:40:00,44.0,-4.2
2023/01/28 18:50:00,44.1,-3.6
2023/01/28 19:00:00,45.0,-3.6
2023/01/28 19:10:00,45.0,-3.9
2023/01/28 19:20:00,44.8,-3.9
2023/01/28 19:30:00,44.8,-3.6
2023/01/28 19:40:00,45.2,-3.8
2023/01/28 19:50:00,45.1,-3.7
2023/01/28 20:00:00,45.0,-3.8
2023/01/28 20:10:00,44.8,-4.1
2023/01/28 20:20:00,44.7,-4.3
2023/01/28 20:30:00,44.7,-4.3
2023/01/28 20:40:00,44.8,-4.1
2023/01/28 20:50:00,44.7,-4.3
2023/01/28 21:00:00,44.5,-4.1
2023/01/28 21:10:00,44.6,-4.2
2023/01/28 21:20:00,44.7,-4.1
2023/01/28 21:30:00,45.0,-3.7
2023/01/28 21:40:00,45.0,-3.9
2023/01/28 21:50:00,45.0,-3.9
2023/01/28 22:00:00,45.0,-3.6
2023/01/28 22:10:00,45.0,-4.0
2023/01/28 22:20:00,45.0,-3.9
2023/01/28 22:30:00,45.4,-3.8
2023/01/28 22:40:00,45.9,-3.9
2023/01/28 22:50:00,46.1,-4.1
2023/01/28 23:00:00,45.9,-4.4
2023/01/28 23:10:00,46.0,-4.1
2023/01/28 23:20:00,45.8,-4.2
2023/01/28 23:30:00,46.2,-4.2
2023/01/28 23:40:00,46.9,-4.1
2023/01/28 23:50:00,46.9,-3.8
